TimeCEST,TemperatureF,Dew PointF,Humidity,Sea Level PressureIn,VisibilityMPH,Wind Direction,Wind SpeedMPH,Gust SpeedMPH,PrecipitationIn,Events,Conditions,WindDirDegrees,DateUTC
12:25 AM,46.4,46.4,100,30.30,0.4,SSE,1.2,-,N/A,Fog,Fog,150,2013-10-06 22:25:00
12:55 AM,46.4,46.4,100,30.30,0.7,Calm,Calm,-,N/A,,Mist,0,2013-10-06 22:55:00
1:25 AM,44.6,44.6,100,30.30,0.2,Calm,Calm,-,N/A,Fog,Fog,0,2013-10-06 23:25:00
1:55 AM,46.4,46.4,100,30.30,2.2,Calm,Calm,-,N/A,,Mist,0,2013-10-06 23:55:00
2:00 AM,46,46,100,30.31,1,Calm,Calm,,,Fog,Fog,,2013-10-07 00:00:00
2:25 AM,46.4,46.4,100,30.30,4.3,SSE,2.3,-,N/A,,Unknown,150,2013-10-07 00:25:00
2:55 AM,46.4,46.4,100,30.30,0.9,SE,1.2,-,N/A,,Mist,140,2013-10-07 00:55:00
3:25 AM,44.6,44.6,100,30.30,1.4,SE,1.2,-,N/A,,Mist,140,2013-10-07 01:25:00
3:55 AM,44.6,44.6,100,30.30,0.4,South,1.2,-,N/A,Fog,Fog,190,2013-10-07 01:55:00
4:25 AM,42.8,42.8,100,30.27,0.5,South,1.2,-,N/A,Fog,Fog,180,2013-10-07 02:25:00
4:55 AM,44.6,44.6,100,30.30,1.3,SSE,1.2,-,N/A,,Mostly Cloudy,160,2013-10-07 02:55:00
5:00 AM,45,45,100,30.30,1,SSE,2.2,,,Fog,Fog,150,2013-10-07 03:00:00
5:25 AM,46.4,46.4,100,30.30,3.7,SSE,3.5,-,N/A,,Unknown,150,2013-10-07 03:25:00
5:55 AM,46.4,46.4,100,30.30,0.5,SSE,3.5,-,N/A,Fog,Fog,160,2013-10-07 03:55:00
6:25 AM,46.4,46.4,100,30.30,-9999.0,SSE,3.5,-,N/A,,Mist,160,2013-10-07 04:25:00
6:55 AM,46.4,46.4,100,30.30,0.9,SSE,3.5,-,N/A,,Mist,150,2013-10-07 04:55:00
7:25 AM,48.2,48.2,100,30.30,3.1,SSE,5.8,-,N/A,,Mist,160,2013-10-07 05:25:00
7:55 AM,48.2,48.2,100,30.30,3.1,Variable,2.3,-,N/A,,Unknown,0,2013-10-07 05:55:00
8:00 AM,48,48,100,30.30,3,SE,2.2,,,Fog,Fog,140,2013-10-07 06:00:00
8:25 AM,48.2,48.2,100,30.30,-9999.0,SSE,4.6,-,N/A,,Mist,150,2013-10-07 06:25:00
8:55 AM,50.0,50.0,100,30.30,3.1,SSE,4.6,-,N/A,,Mist,150,2013-10-07 06:55:00
9:25 AM,53.6,51.8,94,30.30,3.1,SSE,4.6,-,N/A,,Mist,150,2013-10-07 07:25:00
9:55 AM,55.4,51.8,88,30.30,3.7,Variable,2.3,-,N/A,,Unknown,0,2013-10-07 07:55:00
10:25 AM,57.2,53.6,88,30.30,4.3,SSE,4.6,-,N/A,,Unknown,160,2013-10-07 08:25:00
10:55 AM,59.0,53.6,82,30.30,4.3,South,5.8,-,N/A,,Partly Cloudy,180,2013-10-07 08:55:00
11:00 AM,59,55,82,30.32,4,South,4.5,,,,Mist,190,2013-10-07 09:00:00
11:25 AM,60.8,55.4,82,30.30,5.0,South,5.8,-,N/A,,Unknown,170,2013-10-07 09:25:00
11:55 AM,60.8,57.2,88,30.30,6.2,SSW,5.8,-,N/A,,Scattered Clouds,200,2013-10-07 09:55:00
12:25 PM,62.6,57.2,82,30.30,6.2,South,6.9,-,N/A,,Partly Cloudy,190,2013-10-07 10:25:00
12:55 PM,62.6,57.2,82,30.30,6.2,South,8.1,-,N/A,,Scattered Clouds,180,2013-10-07 10:55:00
1:25 PM,60.8,57.2,88,30.30,6.2,WSW,5.8,-,N/A,,Overcast,240,2013-10-07 11:25:00
1:55 PM,62.6,57.2,82,30.30,6.2,WSW,4.6,-,N/A,,Mostly Cloudy,240,2013-10-07 11:55:00
2:00 PM,62,56,76,30.30,7,WSW,4.5,,,,Partly Cloudy,240,2013-10-07 12:00:00
2:25 PM,62.6,55.4,77,30.30,6.2,WSW,3.5,-,N/A,,Overcast,240,2013-10-07 12:25:00
2:55 PM,62.6,55.4,77,30.27,6.2,WSW,4.6,-,N/A,,Mostly Cloudy,250,2013-10-07 12:55:00
3:25 PM,64.4,57.2,77,30.27,6.2,SSW,4.6,-,N/A,,Overcast,210,2013-10-07 13:25:00
3:55 PM,64.4,53.6,68,30.27,6.2,SSW,4.6,-,N/A,,Scattered Clouds,210,2013-10-07 13:55:00
4:25 PM,62.6,53.6,72,30.27,6.2,SW,5.8,-,N/A,,Mostly Cloudy,230,2013-10-07 14:25:00
4:55 PM,64.4,55.4,73,30.27,6.2,WSW,3.5,-,N/A,,Overcast,240,2013-10-07 14:55:00
5:00 PM,64,55,65,30.28,15,WSW,4.5,,,,Overcast,250,2013-10-07 15:00:00
5:25 PM,64.4,55.4,73,30.27,6.2,SW,5.8,-,N/A,,Overcast,220,2013-10-07 15:25:00
5:55 PM,62.6,55.4,77,30.27,6.2,West,4.6,-,N/A,,Overcast,260,2013-10-07 15:55:00
6:25 PM,62.6,55.4,77,30.27,6.2,West,2.3,-,N/A,,Overcast,270,2013-10-07 16:25:00
6:55 PM,62.6,55.4,77,30.27,6.2,West,4.6,-,N/A,,Overcast,280,2013-10-07 16:55:00
7:25 PM,60.8,55.4,82,30.27,6.2,West,2.3,-,N/A,,Mostly Cloudy,260,2013-10-07 17:25:00
7:55 PM,57.2,55.4,94,30.27,6.2,Variable,2.3,-,N/A,,Mostly Cloudy,0,2013-10-07 17:55:00
8:00 PM,57,55,91,30.29,8,Calm,Calm,,,,Partly Cloudy,,2013-10-07 18:00:00
8:25 PM,55.4,53.6,94,30.27,4.3,West,2.3,-,N/A,,Unknown,280,2013-10-07 18:25:00
8:55 PM,53.6,51.8,94,30.27,4.3,Variable,1.2,-,N/A,,Unknown,0,2013-10-07 18:55:00
9:25 PM,51.8,51.8,100,30.27,3.7,South,1.2,-,N/A,,Unknown,170,2013-10-07 19:25:00
9:55 PM,50.0,50.0,100,30.27,1.4,West,1.2,-,N/A,,Mist,260,2013-10-07 19:55:00
10:25 PM,50.0,50.0,100,30.27,3.1,SSE,2.3,-,N/A,,Mist,150,2013-10-07 20:25:00
10:55 PM,50.0,50.0,100,30.27,1.2,SSE,1.2,-,N/A,,Mist,160,2013-10-07 20:55:00
11:00 PM,50,50,100,30.30,0,Calm,Calm,,,Fog,Fog,,2013-10-07 21:00:00
11:25 PM,50.0,50.0,100,30.27,1.4,SE,2.3,-,N/A,,Mist,140,2013-10-07 21:25:00
11:55 PM,50.0,50.0,100,30.27,0.2,SSE,2.3,-,N/A,Fog,Fog,150,2013-10-07 21:55:00